Flag for Canada Weather past 2 weeks in Yellowknife, Northwest Territories, Canada

Now
63 °F

Broken clouds.


Feels Like: 63 °F
Forecast: 38 / 56 °F
Wind: 15 mph from Southwest

Location: Yellowknife

Current Time: Aug 21, 2014 at 4:16:18 PM

Latest Report: Aug 21, 2014 at 3:00 PM


Visibility: 12 mi

Pressure: 30.24 "Hg

Humidity: 39%

Dew point: 37 °F

Location of YellowknifeLocation

Historic Weather in Yellowknife — Graph

°F

Yellowknife temperature yesterday

Maximum temperature yesterday: 59 °F (at 4:00 PM)
Minimum temperature yesterday: 39 °F (at 3:00 AM)
Average temperature yesterday: 49 °F

Past Weeks' High & Low Weather Summary

 TemperatureHumidityPressure
High79 °F (Aug 13, 1:00 PM)94% (Aug 10, 1:00 AM)30.24 "Hg (Aug 10, 1:00 AM)
Low39 °F (Aug 20, 3:00 AM)30% (Aug 11, 4:00 PM)29.54 "Hg (Aug 16, 7:00 PM)
Average57 °F69%29.88 "Hg
* Reported Aug 6 3:00 PM — Aug 21 3:00 PM, Yellowknife, Weather by CustomWeather, © 2014

Note: Actual official high and low records may vary slightly from our data, if they occured in-between our weather recording intervals... More about our weather records

Advertising

Yellowknife weather history for previous 24 hours

 ConditionsComfort  
Time TempWeatherWind HumidityBarometerVisibility
3:00 PM
Aug 21
63 °FBroken clouds.15 mph39%30.24 "Hg12 mi
2:00 PM59 °FPassing clouds.6 mph42%30.24 "Hg10 mi
1:00 PM61 °FPassing clouds.3 mph36%30.23 "Hg8 mi
12:00 PM59 °FPassing clouds.3 mph42%30.23 "Hg8 mi
11:00 AM55 °FScattered clouds.5 mph51%30.23 "Hg6 mi
10:00 AM54 °FPartly sunny.2 mph58%30.22 "Hg8 mi
9:00 AM50 °FPartly sunny.5 mph76%30.21 "Hg10 mi
8:00 AM46 °FPartly sunny.2 mph82%30.20 "Hg12 mi
7:00 AM41 °FPassing clouds.2 mph87%30.19 "Hg15 mi
6:00 AM41 °FPassing clouds.5 mph70%30.19 "Hg15 mi
5:00 AM46 °FPassing clouds.6 mph57%30.18 "Hg15 mi
4:00 AM39 °FPassing clouds.No wind81%30.17 "Hg15 mi
3:00 AM43 °FPassing clouds.2 mph71%30.16 "Hg15 mi
2:00 AM41 °FPassing clouds.No wind76%30.15 "Hg15 mi
1:00 AM45 °FClear.2 mph76%30.14 "Hg15 mi
12:00 AM45 °FClear.2 mph71%30.13 "Hg15 mi
11:00 PM
Aug 20
48 °FPassing clouds.No wind58%30.11 "Hg15 mi
10:00 PM48 °FPassing clouds.3 mph58%30.10 "Hg15 mi
9:00 PM54 °FPassing clouds.3 mph47%30.09 "Hg15 mi
8:00 PM57 °FPassing clouds.8 mph36%30.07 "Hg15 mi
7:00 PM59 °FPassing clouds.7 mph31%30.06 "Hg15 mi
6:00 PM59 °FRefreshingly cool.8 mph36%30.06 "Hg15 mi
5:00 PM59 °FPassing clouds.8 mph34%30.04 "Hg15 mi
4:00 PM59 °FPassing clouds.5 mph34%30.03 "Hg15 mi
Weather by CustomWeather, © 2014

See weather overviewHow to use our weather pages